TimeMST,TemperatureF,Dew PointF,Humidity,Sea Level PressureIn,VisibilityMPH,Wind Direction,Wind SpeedMPH,Gust SpeedMPH,PrecipitationIn,Events,Conditions,WindDirDegrees,DateUTC
12:55 AM,45.1,28.4,52,30.21,10.0,ESE,12.7,-,N/A,,Clear,110,2012-11-04 06:55:00
1:55 AM,44.2,27.9,53,30.22,10.0,ESE,12.7,-,N/A,,Clear,110,2012-11-04 07:55:00
1:55 AM,44.6,27.3,51,30.21,10.0,ESE,12.7,-,N/A,,Clear,120,2012-11-04 08:55:00
2:55 AM,43.3,27.3,53,30.24,10.0,ESE,13.8,-,N/A,,Clear,110,2012-11-04 09:55:00
3:55 AM,43.0,27.0,53,30.21,10.0,ESE,12.7,-,N/A,,Clear,110,2012-11-04 10:55:00
4:55 AM,42.4,26.8,54,30.24,10.0,ESE,13.8,-,N/A,,Clear,110,2012-11-04 11:55:00
5:55 AM,41.5,26.6,55,30.27,10.0,ESE,16.1,-,N/A,,Clear,110,2012-11-04 12:55:00
6:55 AM,41.0,26.6,57,30.27,10.0,ESE,18.4,-,N/A,,Clear,110,2012-11-04 13:55:00
7:55 AM,41.7,26.4,55,30.31,10.0,ESE,16.1,-,N/A,,Clear,110,2012-11-04 14:55:00
8:55 AM,45.5,27.5,49,30.33,10.0,ESE,11.5,-,N/A,,Clear,110,2012-11-04 15:55:00
9:55 AM,50.7,28.4,42,30.32,10.0,ESE,11.5,-,N/A,,Clear,110,2012-11-04 16:55:00
10:55 AM,55.2,28.8,36,30.32,10.0,Calm,Calm,-,N/A,,Mostly Cloudy,0,2012-11-04 17:55:00
11:55 AM,57.6,30.6,36,30.31,10.0,Calm,Calm,-,N/A,,Clear,0,2012-11-04 18:55:00
12:55 PM,58.8,30.2,34,30.30,10.0,WNW,3.5,-,N/A,,Mostly Cloudy,290,2012-11-04 19:55:00
1:55 PM,59.4,31.1,34,30.30,10.0,Calm,Calm,-,N/A,,Overcast,0,2012-11-04 20:55:00
2:55 PM,59.2,31.3,35,30.29,10.0,WNW,4.6,-,N/A,,Overcast,290,2012-11-04 21:55:00
3:55 PM,58.8,32.9,38,30.32,10.0,NW,4.6,-,N/A,,Overcast,310,2012-11-04 22:55:00
4:55 PM,55.9,39.0,53,30.30,10.0,West,5.8,-,N/A,,Clear,280,2012-11-04 23:55:00
5:55 PM,54.3,39.0,56,30.33,10.0,NNW,4.6,-,N/A,,Clear,340,2012-11-05 00:55:00
6:55 PM,52.7,38.1,58,30.35,10.0,Calm,Calm,-,N/A,,Clear,0,2012-11-05 01:55:00
7:55 PM,51.6,37.4,58,30.36,10.0,Calm,Calm,-,N/A,,Clear,0,2012-11-05 02:55:00
8:55 PM,48.9,33.1,54,30.37,10.0,ESE,8.1,-,N/A,,Clear,110,2012-11-05 03:55:00
9:55 PM,48.2,32.4,54,30.35,10.0,ESE,10.4,-,N/A,,Clear,110,2012-11-05 04:55:00
10:55 PM,46.8,32.0,57,30.34,10.0,ESE,9.2,-,N/A,,Clear,110,2012-11-05 05:55:00